<?xml version="1.0" encoding="UTF-8" standalone="no" ?>
<gpx xmlns="http://www.topografix.com/GPX/1/1" xmlns:xsi="http://www.w3.org/2001/XMLSchema-instance" xsi:schemaLocation="http://www.topografix.com/GPX/1/1 http://www.topografix.com/GPX/1/1/gpx.xsd" version="1.1" creator="VisuGPX - https://www.visugpx.com">
  <metadata>
    <name>GR8S3_LesSableStMichelHerm</name>
    <desc><![CDATA[gnerando idor: 12420312_12420320_12420354_12420365]]></desc>
  </metadata>
  <trk>
    <name><![CDATA[GR8S3J2_TalmontLesConches_21.4km-12420320]]></name>
    <extensions>
      <line xmlns="http://www.topografix.com/GPX/gpx_style/0/2">
        <color>0000FF</color>
        <width>4</width>
      </line>
    </extensions>
    <trkseg>
      <trkpt lat="46.46331" lon="-1.63572">
        <ele>27</ele>
        <time>2023-10-30T14:39:09Z</time>
      </trkpt>
      <trkpt lat="46.4639" lon="-1.63448">
        <ele>28</ele>
        <time>2023-10-30T14:41:28Z</time>
      </trkpt>
      <trkpt lat="46.46479" lon="-1.63317">
        <ele>27</ele>
        <time>2023-10-30T14:44:17Z</time>
      </trkpt>
      <trkpt lat="46.46521" lon="-1.63238">
        <ele>26</ele>
        <time>2023-10-30T14:45:48Z</time>
      </trkpt>
      <trkpt lat="46.46537" lon="-1.63146">
        <ele>24</ele>
        <time>2023-10-30T14:47:16Z</time>
      </trkpt>
      <trkpt lat="46.46528" lon="-1.62957">
        <ele>23</ele>
        <time>2023-10-30T14:50:10Z</time>
      </trkpt>
      <trkpt lat="46.46555" lon="-1.62841">
        <ele>24</ele>
        <time>2023-10-30T14:52:02Z</time>
      </trkpt>
      <trkpt lat="46.4654" lon="-1.62796">
        <ele>23</ele>
        <time>2023-10-30T14:52:48Z</time>
      </trkpt>
      <trkpt lat="46.46494" lon="-1.62753">
        <ele>19</ele>
        <time>2023-10-30T14:54:01Z</time>
      </trkpt>
      <trkpt lat="46.46464" lon="-1.62691">
        <ele>17</ele>
        <time>2023-10-30T14:55:11Z</time>
      </trkpt>
      <trkpt lat="46.46466" lon="-1.62603">
        <ele>16</ele>
        <time>2023-10-30T14:56:32Z</time>
      </trkpt>
      <trkpt lat="46.4649" lon="-1.62465">
        <ele>14</ele>
        <time>2023-10-30T14:58:43Z</time>
      </trkpt>
      <trkpt lat="46.4649" lon="-1.62386">
        <ele>13</ele>
        <time>2023-10-30T14:59:55Z</time>
      </trkpt>
      <trkpt lat="46.4645" lon="-1.62195">
        <ele>9</ele>
        <time>2023-10-30T15:02:59Z</time>
      </trkpt>
      <trkpt lat="46.46451" lon="-1.62113">
        <ele>9</ele>
        <time>2023-10-30T15:04:14Z</time>
      </trkpt>
      <trkpt lat="46.46435" lon="-1.6203">
        <ele>7</ele>
        <time>2023-10-30T15:05:33Z</time>
      </trkpt>
      <trkpt lat="46.46411" lon="-1.6203">
        <ele>6</ele>
        <time>2023-10-30T15:06:05Z</time>
      </trkpt>
      <trkpt lat="46.46398" lon="-1.6188">
        <ele>4</ele>
        <time>2023-10-30T15:08:24Z</time>
      </trkpt>
      <trkpt lat="46.46399" lon="-1.61768">
        <ele>4</ele>
        <time>2023-10-30T15:10:07Z</time>
      </trkpt>
      <trkpt lat="46.46388" lon="-1.61672">
        <ele>7</ele>
        <time>2023-10-30T15:11:37Z</time>
      </trkpt>
      <trkpt lat="46.46351" lon="-1.61646">
        <ele>8</ele>
        <time>2023-10-30T15:12:32Z</time>
      </trkpt>
      <trkpt lat="46.46314" lon="-1.61648">
        <ele>10</ele>
        <time>2023-10-30T15:13:21Z</time>
      </trkpt>
      <trkpt lat="46.46278" lon="-1.61674">
        <ele>12</ele>
        <time>2023-10-30T15:14:15Z</time>
      </trkpt>
      <trkpt lat="46.46228" lon="-1.61697">
        <ele>17</ele>
        <time>2023-10-30T15:15:25Z</time>
      </trkpt>
      <trkpt lat="46.46076" lon="-1.61635">
        <ele>27</ele>
        <time>2023-10-30T15:18:55Z</time>
      </trkpt>
      <trkpt lat="46.46098" lon="-1.61539">
        <ele>28</ele>
        <time>2023-10-30T15:20:28Z</time>
      </trkpt>
      <trkpt lat="46.46064" lon="-1.61543">
        <ele>28</ele>
        <time>2023-10-30T15:21:14Z</time>
      </trkpt>
      <trkpt lat="46.45702" lon="-1.6177">
        <ele>22</ele>
        <time>2023-10-30T15:30:00Z</time>
      </trkpt>
      <trkpt lat="46.45663" lon="-1.6153">
        <ele>21</ele>
        <time>2023-10-30T15:33:47Z</time>
      </trkpt>
      <trkpt lat="46.45555" lon="-1.61575">
        <ele>16</ele>
        <time>2023-10-30T15:36:17Z</time>
      </trkpt>
      <trkpt lat="46.45323" lon="-1.61558">
        <ele>8</ele>
        <time>2023-10-30T15:41:27Z</time>
      </trkpt>
      <trkpt lat="46.45028" lon="-1.61481">
        <ele>3</ele>
        <time>2023-10-30T15:48:07Z</time>
      </trkpt>
      <trkpt lat="46.44998" lon="-1.61429">
        <ele>4</ele>
        <time>2023-10-30T15:49:09Z</time>
      </trkpt>
      <trkpt lat="46.44362" lon="-1.61431">
        <ele>6</ele>
        <time>2023-10-30T16:03:18Z</time>
      </trkpt>
      <trkpt lat="46.44164" lon="-1.61513">
        <ele>3</ele>
        <time>2023-10-30T16:07:53Z</time>
      </trkpt>
      <trkpt lat="46.44112" lon="-1.61341">
        <ele>3</ele>
        <time>2023-10-30T16:10:45Z</time>
      </trkpt>
      <trkpt lat="46.44129" lon="-1.61247">
        <ele>2</ele>
        <time>2023-10-30T16:12:15Z</time>
      </trkpt>
      <trkpt lat="46.44186" lon="-1.61191">
        <ele>2</ele>
        <time>2023-10-30T16:13:47Z</time>
      </trkpt>
      <trkpt lat="46.44194" lon="-1.61129">
        <ele>2</ele>
        <time>2023-10-30T16:14:45Z</time>
      </trkpt>
      <trkpt lat="46.4416" lon="-1.60897">
        <ele>5</ele>
        <time>2023-10-30T16:18:23Z</time>
      </trkpt>
      <trkpt lat="46.44192" lon="-1.60663">
        <ele>2</ele>
        <time>2023-10-30T16:22:02Z</time>
      </trkpt>
      <trkpt lat="46.44143" lon="-1.605">
        <ele>3</ele>
        <time>2023-10-30T16:24:46Z</time>
      </trkpt>
      <trkpt lat="46.44105" lon="-1.60442">
        <ele>3</ele>
        <time>2023-10-30T16:25:59Z</time>
      </trkpt>
      <trkpt lat="46.44095" lon="-1.60367">
        <ele>3</ele>
        <time>2023-10-30T16:27:09Z</time>
      </trkpt>
      <trkpt lat="46.44101" lon="-1.60238">
        <ele>3</ele>
        <time>2023-10-30T16:29:08Z</time>
      </trkpt>
      <trkpt lat="46.44078" lon="-1.60208">
        <ele>2</ele>
        <time>2023-10-30T16:29:50Z</time>
      </trkpt>
      <trkpt lat="46.43908" lon="-1.60208">
        <ele>2</ele>
        <time>2023-10-30T16:33:36Z</time>
      </trkpt>
      <trkpt lat="46.43797" lon="-1.60352">
        <ele>2</ele>
        <time>2023-10-30T16:36:55Z</time>
      </trkpt>
      <trkpt lat="46.43743" lon="-1.60393">
        <ele>2</ele>
        <time>2023-10-30T16:38:16Z</time>
      </trkpt>
      <trkpt lat="46.43718" lon="-1.60371">
        <ele>2</ele>
        <time>2023-10-30T16:38:55Z</time>
      </trkpt>
      <trkpt lat="46.43719" lon="-1.6029">
        <ele>3</ele>
        <time>2023-10-30T16:40:10Z</time>
      </trkpt>
      <trkpt lat="46.43556" lon="-1.60305">
        <ele>1</ele>
        <time>2023-10-30T16:43:48Z</time>
      </trkpt>
      <trkpt lat="46.4354" lon="-1.60251">
        <ele>1</ele>
        <time>2023-10-30T16:44:42Z</time>
      </trkpt>
      <trkpt lat="46.43487" lon="-1.60172">
        <ele>2</ele>
        <time>2023-10-30T16:46:23Z</time>
      </trkpt>
      <trkpt lat="46.43454" lon="-1.60152">
        <ele>2</ele>
        <time>2023-10-30T16:47:11Z</time>
      </trkpt>
      <trkpt lat="46.43443" lon="-1.60026">
        <ele>1</ele>
        <time>2023-10-30T16:49:08Z</time>
      </trkpt>
      <trkpt lat="46.43406" lon="-1.59931">
        <ele>2</ele>
        <time>2023-10-30T16:50:48Z</time>
      </trkpt>
      <trkpt lat="46.43394" lon="-1.59843">
        <ele>2</ele>
        <time>2023-10-30T16:52:11Z</time>
      </trkpt>
      <trkpt lat="46.43366" lon="-1.59762">
        <ele>1</ele>
        <time>2023-10-30T16:53:34Z</time>
      </trkpt>
      <trkpt lat="46.43355" lon="-1.59693">
        <ele>2.3</ele>
        <time>2023-10-30T16:54:39Z</time>
      </trkpt>
      <trkpt lat="46.43278" lon="-1.59547">
        <ele>3</ele>
        <time>2023-10-30T16:57:28Z</time>
      </trkpt>
      <trkpt lat="46.43242" lon="-1.59506">
        <ele>2.9</ele>
        <time>2023-10-30T16:58:29Z</time>
      </trkpt>
      <trkpt lat="46.43235" lon="-1.59559">
        <ele>2.5</ele>
        <time>2023-10-30T16:59:19Z</time>
      </trkpt>
      <trkpt lat="46.42925" lon="-1.59622">
        <ele>1</ele>
        <time>2023-10-30T17:06:17Z</time>
      </trkpt>
      <trkpt lat="46.42907" lon="-1.59662">
        <ele>1</ele>
        <time>2023-10-30T17:07:01Z</time>
      </trkpt>
      <trkpt lat="46.42902" lon="-1.59733">
        <ele>2</ele>
        <time>2023-10-30T17:08:06Z</time>
      </trkpt>
      <trkpt lat="46.42781" lon="-1.598">
        <ele>1</ele>
        <time>2023-10-30T17:10:59Z</time>
      </trkpt>
      <trkpt lat="46.42734" lon="-1.59811">
        <ele>1</ele>
        <time>2023-10-30T17:12:03Z</time>
      </trkpt>
      <trkpt lat="46.4243" lon="-1.59943">
        <ele>1</ele>
        <time>2023-10-30T17:19:06Z</time>
      </trkpt>
      <trkpt lat="46.42346" lon="-1.59997">
        <ele>2</ele>
        <time>2023-10-30T17:21:09Z</time>
      </trkpt>
      <trkpt lat="46.42226" lon="-1.60225">
        <ele>5</ele>
        <time>2023-10-30T17:25:33Z</time>
      </trkpt>
      <trkpt lat="46.42191" lon="-1.60269">
        <ele>6</ele>
        <time>2023-10-30T17:26:34Z</time>
      </trkpt>
      <trkpt lat="46.42121" lon="-1.60441">
        <ele>13</ele>
        <time>2023-10-30T17:29:38Z</time>
      </trkpt>
      <trkpt lat="46.42101" lon="-1.60349">
        <ele>15</ele>
        <time>2023-10-30T17:31:07Z</time>
      </trkpt>
      <trkpt lat="46.41998" lon="-1.60417">
        <ele>22</ele>
        <time>2023-10-30T17:33:38Z</time>
      </trkpt>
      <trkpt lat="46.41979" lon="-1.60467">
        <ele>23</ele>
        <time>2023-10-30T17:34:30Z</time>
      </trkpt>
      <trkpt lat="46.41902" lon="-1.6049">
        <ele>23</ele>
        <time>2023-10-30T17:36:15Z</time>
      </trkpt>
      <trkpt lat="46.41797" lon="-1.60558">
        <ele>23</ele>
        <time>2023-10-30T17:38:49Z</time>
      </trkpt>
      <trkpt lat="46.4171" lon="-1.60582">
        <ele>24</ele>
        <time>2023-10-30T17:40:47Z</time>
      </trkpt>
      <trkpt lat="46.41667" lon="-1.60701">
        <ele>23</ele>
        <time>2023-10-30T17:42:51Z</time>
      </trkpt>
      <trkpt lat="46.41638" lon="-1.60753">
        <ele>22</ele>
        <time>2023-10-30T17:43:52Z</time>
      </trkpt>
      <trkpt lat="46.41635" lon="-1.60784">
        <ele>21</ele>
        <time>2023-10-30T17:44:21Z</time>
      </trkpt>
      <trkpt lat="46.41564" lon="-1.60842">
        <ele>19</ele>
        <time>2023-10-30T17:46:10Z</time>
      </trkpt>
      <trkpt lat="46.41352" lon="-1.61162">
        <ele>7</ele>
        <time>2023-10-30T17:52:58Z</time>
      </trkpt>
      <trkpt lat="46.41257" lon="-1.60628">
        <ele>5</ele>
        <time>2023-10-30T18:01:25Z</time>
      </trkpt>
      <trkpt lat="46.41263" lon="-1.60452">
        <ele>5</ele>
        <time>2023-10-30T18:04:08Z</time>
      </trkpt>
      <trkpt lat="46.41212" lon="-1.60205">
        <ele>6</ele>
        <time>2023-10-30T18:08:05Z</time>
      </trkpt>
      <trkpt lat="46.4121" lon="-1.60057">
        <ele>7</ele>
        <time>2023-10-30T18:10:21Z</time>
      </trkpt>
      <trkpt lat="46.41155" lon="-1.59804">
        <ele>8</ele>
        <time>2023-10-30T18:14:25Z</time>
      </trkpt>
      <trkpt lat="46.41161" lon="-1.59675">
        <ele>10</ele>
        <time>2023-10-30T18:16:24Z</time>
      </trkpt>
      <trkpt lat="46.41077" lon="-1.59351">
        <ele>10</ele>
        <time>2023-10-30T18:21:42Z</time>
      </trkpt>
      <trkpt lat="46.41098" lon="-1.59239">
        <ele>11</ele>
        <time>2023-10-30T18:23:29Z</time>
      </trkpt>
      <trkpt lat="46.4109" lon="-1.59146">
        <ele>12</ele>
        <time>2023-10-30T18:24:55Z</time>
      </trkpt>
      <trkpt lat="46.41105" lon="-1.59034">
        <ele>12</ele>
        <time>2023-10-30T18:26:40Z</time>
      </trkpt>
      <trkpt lat="46.41132" lon="-1.58959">
        <ele>12</ele>
        <time>2023-10-30T18:27:58Z</time>
      </trkpt>
      <trkpt lat="46.41146" lon="-1.58759">
        <ele>12</ele>
        <time>2023-10-30T18:31:03Z</time>
      </trkpt>
      <trkpt lat="46.41124" lon="-1.58578">
        <ele>12</ele>
        <time>2023-10-30T18:33:52Z</time>
      </trkpt>
      <trkpt lat="46.41084" lon="-1.58677">
        <ele>11</ele>
        <time>2023-10-30T18:35:38Z</time>
      </trkpt>
      <trkpt lat="46.41021" lon="-1.58671">
        <ele>10</ele>
        <time>2023-10-30T18:37:02Z</time>
      </trkpt>
      <trkpt lat="46.41009" lon="-1.58621">
        <ele>9</ele>
        <time>2023-10-30T18:37:51Z</time>
      </trkpt>
      <trkpt lat="46.41022" lon="-1.58555">
        <ele>8</ele>
        <time>2023-10-30T18:38:54Z</time>
      </trkpt>
      <trkpt lat="46.4099" lon="-1.5843">
        <ele>6</ele>
        <time>2023-10-30T18:40:57Z</time>
      </trkpt>
      <trkpt lat="46.40998" lon="-1.58237">
        <ele>9</ele>
        <time>2023-10-30T18:43:55Z</time>
      </trkpt>
      <trkpt lat="46.40964" lon="-1.5813">
        <ele>6</ele>
        <time>2023-10-30T18:45:43Z</time>
      </trkpt>
      <trkpt lat="46.40971" lon="-1.58016">
        <ele>8</ele>
        <time>2023-10-30T18:47:28Z</time>
      </trkpt>
      <trkpt lat="46.40948" lon="-1.57903">
        <ele>7</ele>
        <time>2023-10-30T18:49:17Z</time>
      </trkpt>
      <trkpt lat="46.40957" lon="-1.57787">
        <ele>7</ele>
        <time>2023-10-30T18:51:04Z</time>
      </trkpt>
      <trkpt lat="46.40926" lon="-1.57593">
        <ele>10</ele>
        <time>2023-10-30T18:54:07Z</time>
      </trkpt>
      <trkpt lat="46.40905" lon="-1.57377">
        <ele>9</ele>
        <time>2023-10-30T18:57:28Z</time>
      </trkpt>
      <trkpt lat="46.40888" lon="-1.5726">
        <ele>9</ele>
        <time>2023-10-30T18:59:18Z</time>
      </trkpt>
      <trkpt lat="46.40837" lon="-1.57162">
        <ele>7</ele>
        <time>2023-10-30T19:01:11Z</time>
      </trkpt>
      <trkpt lat="46.40837" lon="-1.56885">
        <ele>9</ele>
        <time>2023-10-30T19:05:26Z</time>
      </trkpt>
      <trkpt lat="46.40752" lon="-1.56753">
        <ele>5</ele>
        <time>2023-10-30T19:08:12Z</time>
      </trkpt>
      <trkpt lat="46.40757" lon="-1.56699">
        <ele>7</ele>
        <time>2023-10-30T19:09:02Z</time>
      </trkpt>
      <trkpt lat="46.407" lon="-1.56505">
        <ele>6</ele>
        <time>2023-10-30T19:12:16Z</time>
      </trkpt>
      <trkpt lat="46.40698" lon="-1.56429">
        <ele>8</ele>
        <time>2023-10-30T19:13:26Z</time>
      </trkpt>
      <trkpt lat="46.40671" lon="-1.56368">
        <ele>6</ele>
        <time>2023-10-30T19:14:33Z</time>
      </trkpt>
      <trkpt lat="46.40649" lon="-1.56101">
        <ele>5</ele>
        <time>2023-10-30T19:18:40Z</time>
      </trkpt>
      <trkpt lat="46.40663" lon="-1.56001">
        <ele>8</ele>
        <time>2023-10-30T19:20:14Z</time>
      </trkpt>
      <trkpt lat="46.40701" lon="-1.55924">
        <ele>9</ele>
        <time>2023-10-30T19:21:41Z</time>
      </trkpt>
      <trkpt lat="46.40701" lon="-1.55845">
        <ele>8</ele>
        <time>2023-10-30T19:22:54Z</time>
      </trkpt>
      <trkpt lat="46.40649" lon="-1.55611">
        <ele>5</ele>
        <time>2023-10-30T19:26:40Z</time>
      </trkpt>
      <trkpt lat="46.40645" lon="-1.55518">
        <ele>6</ele>
        <time>2023-10-30T19:28:06Z</time>
      </trkpt>
      <trkpt lat="46.40617" lon="-1.55377">
        <ele>5</ele>
        <time>2023-10-30T19:30:21Z</time>
      </trkpt>
      <trkpt lat="46.40623" lon="-1.55336">
        <ele>5</ele>
        <time>2023-10-30T19:31:00Z</time>
      </trkpt>
      <trkpt lat="46.40565" lon="-1.55062">
        <ele>3</ele>
        <time>2023-10-30T19:35:23Z</time>
      </trkpt>
      <trkpt lat="46.40582" lon="-1.54879">
        <ele>4</ele>
        <time>2023-10-30T19:38:13Z</time>
      </trkpt>
      <trkpt lat="46.40571" lon="-1.54834">
        <ele>3</ele>
        <time>2023-10-30T19:38:57Z</time>
      </trkpt>
      <trkpt lat="46.40617" lon="-1.54834">
        <ele>6</ele>
        <time>2023-10-30T19:39:59Z</time>
      </trkpt>
      <trkpt lat="46.40711" lon="-1.54679">
        <ele>5</ele>
        <time>2023-10-30T19:43:09Z</time>
      </trkpt>
      <trkpt lat="46.40848" lon="-1.54716">
        <ele>6</ele>
        <time>2023-10-30T19:46:15Z</time>
      </trkpt>
      <trkpt lat="46.4104" lon="-1.5465">
        <ele>3</ele>
        <time>2023-10-30T19:50:38Z</time>
      </trkpt>
      <trkpt lat="46.4101" lon="-1.54607">
        <ele>3</ele>
        <time>2023-10-30T19:51:34Z</time>
      </trkpt>
      <trkpt lat="46.40954" lon="-1.54538">
        <ele>4</ele>
        <time>2023-10-30T19:53:12Z</time>
      </trkpt>
      <trkpt lat="46.4093" lon="-1.54469">
        <ele>4</ele>
        <time>2023-10-30T19:54:23Z</time>
      </trkpt>
      <trkpt lat="46.4094" lon="-1.54353">
        <ele>3</ele>
        <time>2023-10-30T19:56:11Z</time>
      </trkpt>
      <trkpt lat="46.40984" lon="-1.54236">
        <ele>3</ele>
        <time>2023-10-30T19:58:14Z</time>
      </trkpt>
      <trkpt lat="46.41077" lon="-1.53823">
        <ele>7</ele>
        <time>2023-10-30T20:04:53Z</time>
      </trkpt>
      <trkpt lat="46.41142" lon="-1.53431">
        <ele>9</ele>
        <time>2023-10-30T20:11:04Z</time>
      </trkpt>
      <trkpt lat="46.41083" lon="-1.53523">
        <ele>9</ele>
        <time>2023-10-30T20:13:00Z</time>
      </trkpt>
      <trkpt lat="46.40977" lon="-1.53362">
        <ele>11</ele>
        <time>2023-10-30T20:16:25Z</time>
      </trkpt>
      <trkpt lat="46.40941" lon="-1.53285">
        <ele>11</ele>
        <time>2023-10-30T20:17:50Z</time>
      </trkpt>
      <trkpt lat="46.40958" lon="-1.53229">
        <ele>12</ele>
        <time>2023-10-30T20:18:47Z</time>
      </trkpt>
      <trkpt lat="46.40942" lon="-1.53207">
        <ele>11</ele>
        <time>2023-10-30T20:19:16Z</time>
      </trkpt>
      <trkpt lat="46.40959" lon="-1.53176">
        <ele>11</ele>
        <time>2023-10-30T20:19:52Z</time>
      </trkpt>
      <trkpt lat="46.41027" lon="-1.53158">
        <ele>14</ele>
        <time>2023-10-30T20:21:25Z</time>
      </trkpt>
      <trkpt lat="46.40879" lon="-1.52997">
        <ele>9</ele>
        <time>2023-10-30T20:25:32Z</time>
      </trkpt>
      <trkpt lat="46.40802" lon="-1.528">
        <ele>11</ele>
        <time>2023-10-30T20:29:00Z</time>
      </trkpt>
      <trkpt lat="46.40745" lon="-1.52561">
        <ele>12</ele>
        <time>2023-10-30T20:32:53Z</time>
      </trkpt>
      <trkpt lat="46.40667" lon="-1.5239">
        <ele>11</ele>
        <time>2023-10-30T20:36:01Z</time>
      </trkpt>
      <trkpt lat="46.4061" lon="-1.52322">
        <ele>10</ele>
        <time>2023-10-30T20:37:40Z</time>
      </trkpt>
      <trkpt lat="46.40571" lon="-1.52244">
        <ele>9</ele>
        <time>2023-10-30T20:39:08Z</time>
      </trkpt>
      <trkpt lat="46.40562" lon="-1.52179">
        <ele>9</ele>
        <time>2023-10-30T20:40:09Z</time>
      </trkpt>
      <trkpt lat="46.40575" lon="-1.52137">
        <ele>10</ele>
        <time>2023-10-30T20:40:52Z</time>
      </trkpt>
      <trkpt lat="46.4057" lon="-1.5198">
        <ele>10</ele>
        <time>2023-10-30T20:43:16Z</time>
      </trkpt>
      <trkpt lat="46.40532" lon="-1.51872">
        <ele>6</ele>
        <time>2023-10-30T20:45:08Z</time>
      </trkpt>
      <trkpt lat="46.40515" lon="-1.51738">
        <ele>7</ele>
        <time>2023-10-30T20:47:13Z</time>
      </trkpt>
      <trkpt lat="46.4053" lon="-1.51685">
        <ele>10</ele>
        <time>2023-10-30T20:48:06Z</time>
      </trkpt>
      <trkpt lat="46.40536" lon="-1.5161">
        <ele>11</ele>
        <time>2023-10-30T20:49:16Z</time>
      </trkpt>
      <trkpt lat="46.4051" lon="-1.51576">
        <ele>9</ele>
        <time>2023-10-30T20:50:02Z</time>
      </trkpt>
      <trkpt lat="46.40504" lon="-1.515">
        <ele>10</ele>
        <time>2023-10-30T20:51:13Z</time>
      </trkpt>
      <trkpt lat="46.40458" lon="-1.51435">
        <ele>8</ele>
        <time>2023-10-30T20:52:38Z</time>
      </trkpt>
      <trkpt lat="46.40439" lon="-1.5131">
        <ele>9</ele>
        <time>2023-10-30T20:54:36Z</time>
      </trkpt>
      <trkpt lat="46.4041" lon="-1.51309">
        <ele>7</ele>
        <time>2023-10-30T20:55:15Z</time>
      </trkpt>
      <trkpt lat="46.40324" lon="-1.51096">
        <ele>8</ele>
        <time>2023-10-30T20:59:02Z</time>
      </trkpt>
      <trkpt lat="46.40307" lon="-1.50945">
        <ele>8</ele>
        <time>2023-10-30T21:01:23Z</time>
      </trkpt>
      <trkpt lat="46.40281" lon="-1.50866">
        <ele>7</ele>
        <time>2023-10-30T21:02:43Z</time>
      </trkpt>
      <trkpt lat="46.40291" lon="-1.50821">
        <ele>7</ele>
        <time>2023-10-30T21:03:27Z</time>
      </trkpt>
      <trkpt lat="46.40273" lon="-1.50802">
        <ele>7</ele>
        <time>2023-10-30T21:03:57Z</time>
      </trkpt>
      <trkpt lat="46.40242" lon="-1.50816">
        <ele>7</ele>
        <time>2023-10-30T21:04:40Z</time>
      </trkpt>
      <trkpt lat="46.40158" lon="-1.50789">
        <ele>8</ele>
        <time>2023-10-30T21:06:35Z</time>
      </trkpt>
      <trkpt lat="46.40109" lon="-1.50646">
        <ele>8</ele>
        <time>2023-10-30T21:09:02Z</time>
      </trkpt>
      <trkpt lat="46.40024" lon="-1.50519">
        <ele>5</ele>
        <time>2023-10-30T21:11:45Z</time>
      </trkpt>
      <trkpt lat="46.39997" lon="-1.50439">
        <ele>8</ele>
        <time>2023-10-30T21:13:07Z</time>
      </trkpt>
      <trkpt lat="46.39969" lon="-1.50426">
        <ele>7</ele>
        <time>2023-10-30T21:13:46Z</time>
      </trkpt>
      <trkpt lat="46.39939" lon="-1.5036">
        <ele>7</ele>
        <time>2023-10-30T21:14:58Z</time>
      </trkpt>
      <trkpt lat="46.39976" lon="-1.50225">
        <ele>14</ele>
        <time>2023-10-30T21:17:12Z</time>
      </trkpt>
      <trkpt lat="46.39957" lon="-1.50157">
        <ele>14</ele>
        <time>2023-10-30T21:18:20Z</time>
      </trkpt>
      <trkpt lat="46.39944" lon="-1.49947">
        <ele>17</ele>
        <time>2023-10-30T21:21:34Z</time>
      </trkpt>
      <trkpt lat="46.39915" lon="-1.49729">
        <ele>17</ele>
        <time>2023-10-30T21:24:58Z</time>
      </trkpt>
      <trkpt lat="46.39918" lon="-1.49663">
        <ele>16</ele>
        <time>2023-10-30T21:25:59Z</time>
      </trkpt>
      <trkpt lat="46.39955" lon="-1.49601">
        <ele>13</ele>
        <time>2023-10-30T21:27:14Z</time>
      </trkpt>
      <trkpt lat="46.39927" lon="-1.49442">
        <ele>11</ele>
        <time>2023-10-30T21:29:45Z</time>
      </trkpt>
      <trkpt lat="46.3988" lon="-1.49307">
        <ele>11</ele>
        <time>2023-10-30T21:32:05Z</time>
      </trkpt>
      <trkpt lat="46.39883" lon="-1.49156">
        <ele>11</ele>
        <time>2023-10-30T21:34:24Z</time>
      </trkpt>
      <trkpt lat="46.39812" lon="-1.48985">
        <ele>11</ele>
        <time>2023-10-30T21:37:27Z</time>
      </trkpt>
      <trkpt lat="46.39758" lon="-1.48933">
        <ele>12</ele>
        <time>2023-10-30T21:38:54Z</time>
      </trkpt>
      <trkpt lat="46.39744" lon="-1.48884">
        <ele>12</ele>
        <time>2023-10-30T21:39:43Z</time>
      </trkpt>
      <trkpt lat="46.39776" lon="-1.48813">
        <ele>13</ele>
        <time>2023-10-30T21:41:01Z</time>
      </trkpt>
      <trkpt lat="46.39554" lon="-1.48611">
        <ele>9</ele>
        <time>2023-10-30T21:46:50Z</time>
      </trkpt>
    </trkseg>
  </trk>
</gpx>